sat.trackr.live / text

‹ back to catalog

STARLINK-31851

NORAD 59844 · 2024-097K

PAYLOAD ACTIVE UNKNOWN

§ Identity

Operator
Country
US
Launch date
2024-05-23
Launch site
AFETR
Launch vehicle
Mass (kg)
RCS (m²)

Purposes: comms

External: N2YO · Heavens-Above · Gunter

§ Orbital elements

Epoch: 2026-09-21T08:35:09.938688Z

Period
94.27 min
Inclination
43.0029°
Eccentricity
0.0001301
Mean motion
15.27579110 rev/d
Perigee alt
482.2 km
Apogee alt
483.9 km
Semi-major
6,861.2 km
B*
2.5448e-5
RAAN
249.1672°
Arg perigee
267.1443°
Mean anomaly
92.9260°
Rev number
13,184

§ Raw data

STARLINK-318511 59844U 24097K   26264.35775392  .00000438  00000+0  25448-4 0  99942 59844  43.0029 249.1672 0001301 267.1443  92.9260 15.27579110131846

JSON: /api/v1/satellites/59844 · /tle

For live sub-satellite position, see the globe view (requires WebGL).

§ Visibility from observer

Set your observer location to see the next 7 days of passes ≥ 10°. The values pass through the URL so the page stays shareable.

No JS? Fill the form by hand. The geolocation button needs JavaScript.